Theta_e
350 350 350 350 351 350 351 351 351 352 352 352 351 351 351 351 351 351 351 350 349 348 348 347 347 347 346 346 345 343 342 341 340 337 336 335 334 335 334 333 333 332 332 332 333 332 331 329 329 330 330 330 329 329 329 330 331 330 328 326 325 324 324 322 319 321 322 322 324 325 327 329 326 327 327 328 328 329 336 334 334 333 333 333 332
350 350 351 350 350 350 351 352 352 352 352 352 352 352 351 352 351 351 350 350 350 349 348 347 347 346 346 345 345 344 343 341 340 338 336 334 333 335 334 333 333 332 332 331 331 332 331 329 329 330 330 331 330 329 329 330 329 328 327 329 327 327 327 325 322 321 322 321 322 323 325 328 327 325 327 327 328 330 329 330 330 331 331 331 331
351 351 351 351 350 350 351 351 352 352 352 352 352 352 352 352 352 350 350 350 350 349 349 348 347 346 345 345 344 344 344 342 340 338 336 335 333 334 335 333 333 332 331 331 331 331 330 330 330 330 331 330 330 329 329 330 330 329 329 330 329 329 330 328 324 323 323 323 322 322 323 326 326 328 328 328 330 330 329 330 331 332 333 332 332
351 351 351 351 351 351 350 351 351 351 351 352 352 353 353 352 352 351 351 350 349 350 349 348 347 346 345 345 344 344 343 343 341 338 337 336 334 334 334 334 333 333 332 332 331 331 331 330 330 330 330 329 329 328 328 329 329 329 330 331 331 330 330 330 328 327 324 323 321 325 324 324 325 328 330 331 330 331 331 332 331 331 331 332 330
351 351 351 351 351 351 351 351 350 351 351 352 352 353 353 353 353 351 350 350 350 349 349 348 347 346 345 345 344 344 343 343 341 339 338 337 335 334 334 333 333 333 333 332 334 331 331 331 330 330 330 329 328 328 328 327 329 330 330 330 331 331 331 331 330 327 323 322 323 324 325 325 327 328 329 330 331 330 331 330 331 330 330 330 331
351 350 351 351 351 351 351 351 351 351 351 352 352 353 353 353 352 352 351 350 350 350 349 348 347 346 346 345 345 344 344 343 342 340 339 338 336 335 334 334 333 333 333 332 332 332 331 331 330 330 329 329 329 329 328 328 330 330 330 329 330 330 330 329 328 326 325 325 324 324 324 327 326 328 330 332 330 329 329 329 329 327 326 327 328
351 350 351 350 350 351 351 351 352 352 352 352 353 353 353 353 352 352 352 351 350 350 349 349 348 347 346 346 345 344 344 343 341 341 339 338 337 335 334 334 334 333 333 332 332 332 333 332 331 331 330 330 330 330 329 330 331 331 331 330 330 330 328 327 327 326 326 326 325 325 325 324 325 326 329 331 331 329 327 327 326 327 325 325 326
350 350 350 350 350 351 352 352 352 353 353 353 353 353 353 353 352 352 352 351 351 350 350 349 349 348 346 346 345 345 343 342 342 341 340 338 337 336 335 334 334 334 333 333 333 333 333 332 332 331 332 332 331 331 331 331 331 330 331 331 330 329 327 327 327 327 326 326 325 325 324 323 323 327 330 328 326 326 327 327 325 325 326 325 325
350 350 350 350 350 351 352 352 353 353 353 353 353 353 352 352 353 352 352 351 352 351 351 350 349 348 347 346 345 345 344 343 342 341 340 338 337 336 335 335 334 334 333 333 333 333 332 332 332 331 334 337 339 337 337 336 332 330 330 331 331 329 328 328 327 326 326 325 325 325 324 324 325 325 325 324 324 324 326 325 325 325 325 324 326
350 350 350 350 351 352 352 352 353 353 353 352 352 353 352 352 352 352 351 351 351 351 350 350 349 348 347 346 345 344 344 344 337 328 331 339 337 337 336 335 335 334 334 333 333 333 333 332 334 338 339 342 343 342 339 339 338 334 332 331 332 329 328 327 326 327 326 325 324 325 324 324 325 324 323 323 324 326 324 323 322 323 322 322 323
349 349 350 351 351 352 352 352 352 352 352 353 353 352 352 352 352 352 351 351 351 351 350 349 349 349 348 347 345 344 344 343 329 326 327 330 337 337 336 336 336 335 334 334 333 333 332 333 332 338 339 341 340 341 339 338 338 336 335 335 335 331 328 326 326 327 326 325 325 324 324 323 324 324 324 324 325 324 324 323 322 322 320 318 317
349 349 350 351 351 351 352 352 352 352 352 352 352 352 353 352 351 351 351 350 350 350 350 349 349 349 348 347 346 346 345 333 326 325 326 326 330 338 337 336 336 335 335 334 333 333 333 332 333 334 336 335 337 338 339 337 335 335 333 333 333 335 333 330 329 326 324 323 321 323 323 322 323 324 324 323 324 323 323 323 322 321 319 317 314
349 349 350 351 351 352 352 352 352 352 352 352 353 353 352 351 351 350 350 351 350 349 349 349 348 349 348 347 347 347 346 332 325 324 325 325 327 332 338 337 337 336 335 334 333 333 333 333 333 334 336 342 341 337 336 336 334 333 332 334 333 332 329 329 330 329 325 323 323 323 324 324 323 324 326 326 326 323 322 321 320 319 319 317 317
349 349 350 350 351 352 352 352 351 352 352 352 352 352 351 351 351 351 351 350 349 349 349 348 348 348 348 347 347 347 347 331 324 322 322 323 325 330 339 338 337 336 335 334 334 333 333 333 332 333 334 336 336 334 334 332 330 329 328 328 329 333 332 328 327 326 328 328 326 325 326 326 324 324 327 327 324 323 321 321 319 316 316 318 319
348 349 349 350 351 351 352 352 351 352 352 352 352 352 351 351 351 351 350 349 349 348 348 348 348 347 348 348 347 347 348 330 323 321 320 321 324 327 338 339 338 336 335 334 334 333 334 334 333 333 332 333 333 332 330 329 328 328 326 326 326 328 329 330 330 330 329 328 327 327 327 326 327 327 327 325 326 326 325 323 322 319 316 312 311
347 348 349 350 351 351 352 351 351 352 352 352 351 351 351 351 351 351 350 350 349 349 349 349 348 347 347 347 347 346 347 327 322 320 319 319 323 331 336 338 337 336 335 334 334 334 334 334 333 333 332 333 333 332 333 330 328 326 324 323 324 325 326 330 329 331 332 329 328 328 328 328 328 328 328 327 325 324 324 317 313 312 311 308 308
346 347 348 349 351 351 352 352 351 351 351 351 351 351 351 351 351 351 350 349 348 348 348 348 349 348 347 347 346 346 346 329 320 318 318 318 321 333 335 337 337 336 335 334 334 334 334 334 333 333 333 333 330 324 329 336 326 325 323 323 323 322 324 327 326 324 324 322 320 320 320 318 317 316 315 315 319 316 312 311 310 309 309 306 308
345 346 347 349 350 351 352 352 351 351 351 350 350 351 352 352 352 351 350 349 348 348 348 348 349 349 348 347 347 346 346 327 316 316 316 317 322 334 335 336 336 336 335 334 333 333 334 339 337 333 332 333 325 322 326 331 325 324 323 323 322 320 320 324 327 323 322 321 320 321 319 318 318 316 316 315 314 315 313 310 311 308 309 308 305
344 345 347 349 350 351 352 352 352 351 351 351 351 351 351 351 352 352 351 350 349 349 348 348 348 348 348 348 338 344 347 329 314 316 315 315 323 335 336 336 335 334 333 332 331 332 334 338 338 334 332 330 320 320 324 331 326 324 323 321 319 318 318 317 318 317 316 316 315 318 319 320 321 319 321 321 319 320 316 315 311 310 310 308 309
345 346 347 348 349 350 351 352 352 352 351 351 352 352 352 352 351 351 350 350 349 349 348 348 347 347 348 348 346 346 344 337 322 314 313 313 318 336 336 335 333 332 331 331 330 330 333 335 333 324 322 320 316 315 317 322 325 323 322 322 320 320 318 315 319 316 316 316 313 315 316 314 313 313 313 314 319 323 317 315 313 312 309 308 310
345 346 346 347 348 349 351 352 352 352 353 352 352 351 351 351 351 351 350 350 349 348 347 347 347 346 345 346 345 343 343 338 326 312 311 312 315 325 335 335 334 332 331 331 330 330 332 333 332 321 317 316 313 311 311 317 323 324 323 322 321 320 316 316 322 326 313 316 316 315 314 313 311 311 312 313 317 316 317 314 315 313 309 308 304
345 345 345 346 347 349 350 351 352 353 353 352 351 350 351 352 352 351 350 349 348 347 346 345 345 341 339 339 340 339 335 331 329 312 311 310 312 321 333 335 334 333 331 330 330 331 332 332 331 323 314 314 311 307 307 313 320 325 322 314 312 315 318 317 316 314 314 312 311 312 311 310 309 311 313 314 316 317 312 309 310 310 311 309 306
345 344 344 344 345 347 349 350 350 352 352 352 351 350 350 351 350 350 349 348 347 345 343 341 338 335 333 331 330 329 329 328 320 318 310 309 311 316 322 328 325 334 332 330 331 332 332 332 332 319 313 308 305 305 306 310 317 321 311 309 311 317 322 316 317 313 310 310 311 309 309 308 309 309 310 311 312 310 311 311 309 309 310 314 312
343 343 342 342 344 345 347 349 351 352 352 352 351 350 350 350 349 349 348 346 344 340 337 336 335 332 330 327 326 325 325 325 318 316 314 310 310 313 316 319 322 332 333 331 331 332 331 331 327 311 306 301 303 306 308 312 321 310 308 311 313 317 317 317 311 310 313 311 309 307 307 306 306 307 310 314 311 309 309 308 308 307 307 307 307
341 341 341 341 342 343 345 347 349 351 352 351 350 350 349 349 346 345 344 342 339 335 333 333 332 330 329 326 325 324 324 323 322 318 314 311 312 312 314 316 319 321 331 330 333 330 322 314 309 306 305 303 305 307 309 311 311 307 308 312 318 313 312 309 308 309 307 307 308 308 307 310 310 311 312 310 311 311 310 309 308 308 307 306 307
341 340 340 340 341 341 342 345 347 349 351 352 351 351 350 347 344 342 340 337 336 334 334 333 331 330 330 328 325 324 323 323 322 320 319 318 317 314 316 318 322 325 328 327 322 318 312 309 308 307 307 310 315 318 319 316 311 312 311 314 314 312 311 309 308 308 309 307 308 309 308 307 309 311 310 309 307 307 306 306 306 307 306 306 305
343 340 339 339 340 341 342 344 347 349 351 352 352 351 348 345 342 339 338 336 335 335 334 333 331 331 330 328 325 324 323 322 322 322 321 322 322 320 321 322 320 320 323 321 318 317 315 316 316 313 313 314 318 317 318 316 313 312 313 313 311 311 311 308 308 308 309 307 308 308 307 309 309 310 309 307 306 305 305 309 305 303 306 304 302
346 344 343 343 343 344 345 347 347 347 349 350 348 345 344 343 340 339 338 338 337 335 334 332 331 331 330 327 324 324 322 322 322 322 322 323 322 322 324 324 323 322 319 319 319 321 318 315 312 317 317 317 316 316 316 315 313 312 310 311 310 311 313 315 315 308 306 307 307 307 309 309 309 308 307 305 304 305 306 307 307 303 305 303 299
342 343 344 345 345 344 346 345 346 346 344 342 340 342 342 341 340 340 341 342 341 338 334 333 334 334 332 328 326 324 323 322 323 317 324 316 321 323 323 323 322 320 318 315 320 319 318 318 316 316 316 316 316 313 311 311 312 311 310 308 308 308 310 309 310 310 309 308 309 308 310 307 307 307 306 303 304 303 303 302 303 301 301 299 299
339 341 343 343 343 343 344 344 344 343 340 333 327 318 310 305 318 338 336 329 326 322 323 334 335 334 331 331 331 328 326 326 314 308 306 306 306 309 310 309 310 315 312 313 319 317 318 317 317 316 315 315 314 312 310 309 310 309 310 311 309 307 308 309 310 310 310 310 309 307 309 308 305 304 302 303 303 303 302 306 301 302 300 298 298
337 338 340 341 340 342 342 342 342 339 335 334 332 325 318 311 298 300 316 321 316 310 313 312 315 321 330 328 321 313 312 308 305 304 303 302 304 303 303 302 303 303 306 317 319 317 316 316 315 315 315 313 314 313 312 310 310 311 308 308 309 311 312 310 310 309 309 310 308 307 307 304 302 301 301 303 303 302 303 302 302 302 299 300 298
335 336 336 337 337 338 341 341 339 335 334 334 331 326 323 319 311 300 299 307 308 307 306 307 309 310 314 319 320 317 307 304 303 302 302 301 301 301 300 300 300 302 304 310 318 315 316 316 313 313 312 312 313 313 311 310 310 310 308 308 309 311 312 312 310 310 310 309 307 306 303 302 301 301 301 302 303 301 299 300 299 299 300 299 299
332 331 330 330 331 332 331 332 334 334 333 331 329 328 327 324 317 311 306 298 298 300 303 304 304 305 306 307 310 309 305 303 302 301 301 301 300 300 300 299 299 300 304 315 316 314 314 314 314 313 313 313 312 311 312 312 311 310 310 310 310 311 312 312 308 309 309 308 305 303 304 302 302 302 303 302 300 296 298 299 298 298 298 296 298
332 331 330 330 329 329 329 327 327 328 331 331 329 329 329 326 322 319 316 315 314 306 300 298 300 303 304 305 305 303 301 300 301 300 300 300 299 298 299 302 297 298 309 318 315 314 313 313 313 313 312 313 312 312 313 312 312 312 311 311 311 310 309 306 306 308 306 305 303 303 303 300 301 298 296 296 298 298 297 299 297 296 295 295 296
331 334 335 333 329 329 328 328 327 327 326 327 328 326 324 324 323 323 322 321 320 318 315 309 300 300 309 305 301 300 299 299 299 299 299 298 298 298 302 309 311 311 311 313 316 314 314 314 314 314 313 313 313 314 313 311 310 311 311 310 306 304 304 304 305 305 303 301 301 300 300 299 297 298 297 296 296 296 297 297 296 296 295 296 297
334 333 333 332 331 330 330 327 326 326 326 325 325 325 325 325 325 324 322 323 320 315 310 306 305 303 299 296 297 298 298 298 297 297 297 297 298 303 314 314 315 315 315 314 315 315 315 315 315 314 313 313 314 312 310 308 308 309 306 307 306 305 304 304 303 302 302 300 300 300 299 297 296 297 295 295 296 296 296 296 296 297 298 297 298
334 333 332 332 331 330 329 328 326 325 324 323 324 325 325 325 324 323 321 319 316 312 308 307 309 309 308 306 300 297 296 296 296 296 296 298 300 313 318 317 316 316 316 315 315 315 315 315 315 314 313 312 310 309 308 307 307 307 307 304 304 302 301 301 301 304 299 298 297 297 297 295 294 295 295 296 297 296 296 298 298 299 299 301 303
332 332 331 331 330 329 328 326 325 325 325 325 325 325 325 324 323 322 320 317 314 312 311 313 315 315 312 307 310 307 301 297 297 297 297 297 306 316 317 318 318 317 317 317 316 316 315 314 312 312 311 309 309 306 307 307 306 306 307 304 303 302 308 305 307 300 299 298 297 295 297 296 294 294 299 295 295 295 295 299 296 295 296 299 297
330 325 324 325 326 329 327 326 326 325 325 325 325 325 324 323 322 320 318 316 315 315 316 317 317 316 312 308 306 307 310 310 311 308 307 309 313 316 315 317 317 316 317 317 318 317 315 313 311 310 309 308 309 307 306 306 305 305 304 303 302 301 303 300 302 299 299 297 297 296 296 295 294 294 297 295 295 295 294 295 296 296 295 295 295
329 328 326 324 327 326 327 328 327 325 326 325 324 325 324 323 321 319 318 317 317 317 317 318 317 314 310 309 309 313 317 315 315 313 312 312 314 314 313 315 315 315 316 315 316 316 315 313 310 309 308 308 307 306 305 305 305 305 304 303 302 302 302 300 299 297 297 298 297 295 295 295 295 297 294 293 294 293 294 296 297 297 296 295 296
330 329 331 326 325 327 330 328 326 325 326 326 325 325 324 323 321 321 319 319 319 319 319 319 316 312 310 308 306 310 319 318 316 315 314 314 314 313 312 314 314 314 314 315 315 315 314 313 310 309 308 308 307 306 305 305 304 304 303 304 303 303 300 299 298 297 297 298 297 295 295 295 297 295 294 295 301 298 296 297 296 295 296 296 296
329 327 327 326 327 328 327 327 327 329 327 327 325 325 325 324 321 320 321 320 320 319 318 316 314 311 306 302 301 303 315 317 316 315 314 314 313 312 313 313 313 314 314 314 313 313 312 311 311 309 308 308 306 306 305 304 304 304 304 303 302 301 300 298 297 297 296 295 296 295 295 297 298 296 296 302 294 294 295 295 294 295 295 296 297
328 327 328 329 328 327 327 327 327 326 326 325 325 329 327 324 322 322 321 321 320 319 318 315 313 311 307 303 303 303 312 314 317 314 313 313 312 312 312 312 312 312 313 313 313 313 312 312 311 309 309 308 308 307 307 306 306 305 303 302 301 300 299 298 297 297 296 296 296 298 297 297 299 296 295 299 295 295 294 295 296 296 296 296 295
327 328 328 328 328 327 327 327 326 326 326 327 327 326 327 324 324 323 321 321 320 320 318 316 313 311 308 304 303 306 312 313 313 312 313 313 312 312 311 310 309 309 308 310 312 312 312 312 311 309 309 309 309 309 308 307 306 304 302 301 301 300 298 298 298 297 297 295 296 297 296 298 298 296 298 300 292 295 296 297 297 296 296 296 296
324 325 325 325 325 324 323 324 323 324 326 327 325 326 327 324 323 322 321 320 321 319 317 316 313 311 308 307 307 309 311 312 313 313 312 312 312 312 311 310 309 309 309 311 310 311 311 312 311 310 310 308 308 307 306 305 305 303 302 300 299 300 297 297 298 297 296 297 298 298 296 296 293 292 294 295 297 295 297 296 296 301 297 296 295
324 324 324 323 322 322 321 321 322 322 323 324 325 325 324 324 324 323 322 321 320 319 317 314 312 311 310 309 309 311 311 311 312 312 312 311 312 311 310 310 310 309 311 310 309 309 309 310 310 310 309 308 306 305 305 304 302 299 297 297 298 298 296 296 296 297 297 297 296 297 296 294 292 293 300 294 295 295 293 295 296 297 296 296 297
323 323 322 323 322 321 321 321 320 320 321 321 320 321 321 321 321 322 325 323 320 319 316 314 312 310 310 310 310 311 312 312 312 312 311 312 311 311 310 310 309 309 309 310 309 309 309 310 309 309 308 306 304 302 300 297 295 296 296 295 295 296 295 296 298 297 296 295 296 294 295 294 294 296 299 299 296 296 298 297 297 297 297 297 296
322 322 322 322 321 321 321 321 322 322 319 319 319 319 319 320 320 321 321 320 319 318 316 314 312 311 311 311 312 312 312 312 312 313 313 312 311 310 310 310 311 311 309 309 308 308 309 309 308 307 306 305 303 300 297 295 294 295 295 296 295 295 297 298 295 294 293 294 292 291 291 291 292 291 293 292 292 295 295 295 298 297 297 298 298
321 321 320 320 321 320 320 320 321 319 319 319 320 319 319 320 320 320 319 320 318 316 316 315 313 312 312 312 312 312 312 312 312 311 312 312 311 311 311 312 312 311 310 309 308 308 308 307 307 306 304 303 301 300 298 297 296 295 295 294 295 299 296 295 294 292 293 293 291 290 289 288 289 291 294 295 294 295 295 296 296 298 297 298 298
320 321 320 320 319 318 320 319 319 318 318 319 319 319 319 320 320 320 319 318 319 317 317 316 314 313 312 312 312 311 311 311 311 311 311 311 311 311 312 311 311 311 311 310 309 308 307 306 306 306 304 303 301 300 299 298 297 296 295 294 295 294 293 294 293 295 292 289 289 289 289 290 290 291 292 292 293 294 294 296 297 299 299 296 296
322 321 321 320 319 319 319 318 317 317 317 317 317 317 316 317 318 319 319 319 318 317 317 316 315 313 312 312 313 312 311 311 311 310 310 311 311 311 312 312 312 311 310 310 309 307 307 307 306 306 304 304 302 300 299 298 296 296 295 293 292 292 292 292 291 290 292 291 288 290 290 291 290 290 290 290 289 290 297 299 299 298 297 297 297
Wind_Speed
17 17 16 16 16 17 16 15 15 13 13 13 14 14 13 12 12 11 9 10 10 10 11 11 11 11 11 11 11 10 10 10 9 8 9 8 7 7 6 7 8 8 6 7 6 5 6 6 5 5 4 4 4 3 3 3 2 2 2 3 4 3 5 4 4 5 3 2 2 2 1 0 1 3 4 4 4 4 3 4 4 4 4 4 4
18 17 16 15 17 16 16 14 14 13 14 14 14 14 13 13 12 10 11 11 11 12 12 11 10 11 11 11 11 11 10 11 9 8 9 8 7 6 7 9 9 9 7 8 7 5 5 6 5 4 4 5 4 4 5 4 4 3 3 4 5 5 4 5 5 4 5 2 2 2 2 3 2 1 4 4 5 3 4 4 3 3 3 3 4
17 16 16 16 17 16 15 14 14 15 16 14 15 15 14 13 11 12 12 10 10 11 11 11 11 11 11 11 11 11 11 10 9 9 9 10 10 9 8 10 10 10 10 10 7 5 5 6 6 4 4 4 4 5 4 4 4 5 5 4 5 5 5 4 4 4 5 4 2 2 2 1 3 4 2 3 3 3 4 5 5 4 3 3 4
17 17 16 17 17 16 16 15 15 15 16 15 16 16 14 13 12 12 12 10 11 10 10 11 11 11 12 11 11 11 11 9 9 9 10 11 11 11 10 9 9 10 10 9 7 7 8 6 6 6 5 5 5 5 5 4 5 5 5 5 5 5 4 4 5 4 3 4 2 3 3 2 3 3 4 3 3 3 4 5 3 4 5 4 3
17 17 17 18 17 16 16 15 16 17 17 15 17 16 15 13 12 13 12 11 11 10 10 10 11 11 12 13 12 11 11 10 10 10 10 10 11 11 10 9 9 9 9 8 8 8 8 9 7 6 6 7 6 6 5 5 5 6 6 6 5 4 3 4 5 3 3 5 4 2 2 2 2 3 2 3 4 3 3 4 4 3 4 4 3
17 17 17 17 17 18 17 16 17 18 17 16 17 16 15 14 13 12 12 13 11 11 11 10 11 12 12 12 11 11 10 10 11 12 12 11 11 11 10 9 9 9 8 7 8 8 9 9 7 7 8 9 8 6 6 7 6 6 6 5 5 4 5 4 3 4 4 5 4 4 1 4 3 3 3 3 4 5 6 5 4 3 3 5 4
18 17 17 18 16 17 18 18 17 17 16 16 14 14 14 14 14 13 12 13 12 12 11 12 11 11 11 10 11 11 10 10 11 12 12 11 12 11 10 9 9 9 8 8 8 8 9 8 8 8 9 9 8 8 8 7 7 7 8 7 6 6 5 5 4 4 5 5 4 5 5 3 3 6 3 3 2 3 4 6 6 4 2 3 5
17 18 18 18 18 19 18 17 16 16 15 14 13 13 13 13 13 12 11 12 13 13 13 12 10 9 10 10 10 9 10 11 11 11 11 11 11 10 10 9 10 9 8 8 9 9 8 8 8 9 9 8 8 8 8 8 7 7 7 6 6 6 5 4 4 5 4 4 6 6 4 4 2 4 0 0 1 3 3 4 6 6 6 2 2
18 18 17 18 19 18 16 15 14 14 14 13 13 13 13 13 12 11 11 12 11 12 11 10 10 10 9 9 9 9 11 12 11 11 11 11 10 10 10 10 10 10 9 9 9 8 7 8 7 6 8 9 11 10 10 9 8 7 6 6 6 6 4 4 5 5 5 5 6 3 4 5 5 4 4 3 3 6 3 2 4 5 4 4 4
18 18 19 19 18 16 16 14 14 13 13 14 14 14 12 12 11 12 12 12 11 10 10 10 11 11 11 10 10 10 11 10 13 17 15 11 10 9 9 10 10 10 10 10 8 8 8 8 9 12 12 14 15 14 14 14 12 9 8 7 7 6 6 5 5 6 5 6 6 6 6 7 7 4 4 2 5 4 4 3 4 5 3 3 3
18 19 20 20 17 16 15 15 14 15 15 14 13 12 13 11 11 12 11 10 11 10 10 11 11 11 12 11 12 11 11 10 16 16 17 17 12 10 10 11 11 11 10 10 9 8 7 8 7 10 12 13 12 16 14 14 13 11 11 11 9 9 7 6 6 6 6 6 6 4 5 7 8 2 2 4 3 4 4 3 5 4 4 4 6
19 20 20 17 16 16 16 15 15 15 14 15 14 13 12 11 11 11 11 11 11 10 12 12 11 11 11 12 12 12 12 14 16 16 17 18 15 11 11 10 10 11 10 10 8 7 7 8 7 7 9 10 9 10 11 13 12 11 11 11 11 11 10 8 6 4 4 5 5 5 3 5 5 3 3 2 4 3 4 4 4 5 5 4 3
18 18 16 15 16 16 15 15 16 15 15 15 13 11 12 12 12 12 13 12 10 12 13 12 12 12 12 13 13 13 12 13 16 17 18 18 19 16 10 11 11 11 10 9 6 6 8 8 8 8 7 14 10 7 7 8 11 12 10 10 10 11 10 10 6 1 3 3 3 4 5 3 4 4 2 2 1 3 3 4 4 4 5 5 6
18 18 17 16 16 16 15 16 16 16 15 13 12 12 13 14 13 12 11 10 12 13 13 14 12 12 13 13 13 12 12 13 17 18 18 19 20 18 12 12 11 9 10 10 10 10 10 9 8 7 6 7 7 8 7 8 7 5 4 4 4 4 4 2 2 1 2 3 4 6 4 3 5 3 2 1 1 4 4 6 4 3 4 7 5
17 16 16 16 15 15 16 16 16 15 14 13 13 14 14 13 13 12 12 13 14 14 14 14 13 14 14 13 12 12 11 15 17 19 19 20 21 18 13 10 8 8 7 7 9 10 10 10 9 9 8 7 7 8 8 8 7 6 5 4 3 2 2 2 2 3 3 4 5 6 5 3 4 4 4 2 4 6 6 6 5 4 2 1 3
16 14 14 15 16 16 17 16 15 14 14 14 15 15 15 15 15 14 13 12 12 11 11 12 14 13 13 13 12 12 10 16 18 19 20 20 21 14 11 10 8 6 7 8 8 8 7 7 8 9 8 8 9 13 11 8 7 6 5 4 3 2 1 3 3 4 4 5 5 5 4 3 3 3 4 4 5 5 4 0 1 1 1 3 5
16 16 16 16 15 14 15 16 15 14 14 15 16 16 16 15 14 12 13 14 13 13 14 13 12 13 14 13 13 12 10 14 19 19 20 21 16 11 10 8 7 8 8 8 8 8 9 9 8 8 7 8 11 14 13 9 6 5 5 4 3 1 0 1 4 5 4 3 3 3 4 5 6 7 8 9 4 2 2 1 4 1 1 3 3
17 17 18 18 17 16 16 15 15 15 15 17 17 16 15 14 15 14 15 14 14 14 12 11 11 13 13 13 13 12 11 12 19 19 21 21 17 12 10 10 9 8 6 6 6 7 7 13 10 8 9 8 11 14 12 9 6 5 5 4 2 1 0 2 2 3 6 7 5 4 1 1 4 5 5 5 2 3 2 4 3 2 2 2 3
15 16 17 16 16 16 16 15 15 16 17 18 16 16 16 16 14 13 13 12 13 11 11 12 12 11 11 12 15 14 11 10 18 19 20 18 15 10 9 9 9 7 7 6 5 6 6 11 15 11 10 8 13 11 11 7 6 5 5 4 3 3 2 3 3 3 2 1 1 3 2 3 3 3 3 5 4 5 5 5 3 3 4 5 4
17 17 16 14 14 14 14 16 16 17 18 17 16 16 14 12 13 13 13 11 11 11 12 12 12 11 10 11 10 12 10 8 13 17 17 18 19 11 8 8 9 8 6 7 6 5 7 8 11 13 13 13 11 11 10 9 6 5 5 5 4 4 4 4 3 4 3 1 1 0 2 3 2 2 3 3 4 1 4 4 4 5 5 4 4
16 16 14 13 12 14 14 16 19 19 18 17 16 14 13 14 13 13 13 11 11 11 12 10 10 9 8 8 9 9 9 9 10 16 17 19 19 14 9 10 8 8 8 7 7 8 8 7 6 10 12 11 11 11 10 9 8 6 6 5 4 4 6 4 3 6 2 1 0 0 1 2 3 3 3 3 2 0 1 2 4 5 4 4 4
15 14 14 14 15 14 15 16 17 15 14 14 14 15 14 14 13 13 11 12 13 11 9 9 8 6 5 5 6 6 6 11 10 13 16 16 17 16 10 9 9 9 8 7 6 6 7 7 7 10 12 12 12 11 11 10 9 5 4 6 9 8 4 4 4 3 2 2 0 0 1 2 3 3 3 2 1 2 3 3 4 4 4 5 5
7 8 9 11 13 14 15 16 14 12 13 15 15 15 13 13 12 12 12 11 11 10 9 7 7 6 5 4 4 4 4 5 11 12 14 16 17 15 13 10 12 9 9 9 8 7 6 7 8 11 14 14 12 12 10 10 7 3 8 9 8 7 6 4 3 3 2 0 0 1 1 1 2 2 2 3 4 3 4 4 4 4 4 3 4
7 9 11 12 13 14 14 15 14 12 13 13 12 12 12 12 11 10 10 9 8 8 6 6 7 7 6 5 4 4 3 4 5 10 11 15 15 14 14 14 15 9 8 8 7 8 8 7 8 14 14 14 13 11 10 9 5 7 8 8 9 7 3 3 3 3 1 0 1 2 3 2 3 3 3 3 4 3 4 3 3 3 3 4 3
8 8 9 11 12 12 13 13 14 14 12 12 12 11 11 11 9 9 10 10 11 10 9 9 9 8 8 5 2 3 3 4 4 7 11 13 14 14 14 16 15 14 8 5 7 7 8 11 13 14 12 12 11 9 6 6 6 7 8 9 8 3 3 4 4 4 2 3 5 3 3 3 5 4 4 4 3 2 2 3 2 3 3 3 3
9 11 11 11 12 12 12 12 13 14 14 14 16 15 15 13 13 12 12 12 13 13 13 13 12 12 12 12 8 6 5 5 5 5 6 8 9 13 15 15 13 11 9 8 11 12 12 12 12 12 11 9 7 5 4 4 6 8 7 8 3 4 4 5 3 4 5 4 3 5 4 2 2 4 4 3 3 4 1 2 3 5 4 4 6
10 10 11 12 11 12 14 13 14 15 16 15 14 14 13 13 14 14 15 15 14 14 14 14 13 12 13 11 9 9 8 7 7 6 6 7 7 7 9 9 12 12 9 8 9 8 8 8 7 8 8 8 7 6 6 8 6 4 4 3 3 3 4 4 6 6 4 4 3 4 4 4 3 3 5 3 3 4 1 2 2 4 2 2 1
11 11 12 11 11 11 11 14 14 10 11 12 12 11 12 14 15 15 15 15 16 15 13 13 13 13 13 12 12 10 10 9 9 9 9 8 7 7 7 8 7 7 8 8 7 7 8 9 10 7 7 5 4 4 4 3 4 4 3 3 3 3 4 5 4 3 3 2 3 2 3 2 4 4 3 3 3 4 1 1 1 3 2 1 2
3 5 8 9 10 12 13 14 13 13 11 9 7 10 14 15 16 15 16 17 19 18 15 14 13 12 14 14 14 12 10 10 10 8 10 11 11 10 9 8 8 7 10 14 9 7 7 7 6 6 5 6 5 4 4 4 3 3 3 3 3 3 4 4 5 5 5 4 5 5 5 3 4 3 2 3 3 3 1 1 1 1 2 0 1
3 6 7 9 10 11 12 13 14 15 15 14 13 8 9 10 4 10 13 4 4 14 16 14 14 13 12 11 12 14 13 11 14 15 14 14 12 12 11 11 12 11 13 15 10 8 7 7 6 7 6 5 5 5 5 5 4 3 2 3 4 4 4 4 5 5 4 5 5 4 5 4 5 4 2 2 3 4 1 0 2 1 0 1 3
2 3 4 6 10 13 13 12 12 13 15 16 16 15 10 11 18 18 10 16 17 14 12 12 12 12 14 11 9 19 19 20 20 16 16 15 15 16 15 14 16 17 16 11 7 8 7 7 6 5 6 6 6 6 5 5 4 5 4 4 4 5 5 5 6 5 5 5 5 5 5 5 5 3 2 2 2 3 5 1 0 0 1 1 3
7 7 8 8 6 5 7 12 14 14 14 16 16 16 17 17 12 16 18 13 14 15 15 16 15 13 14 17 13 10 16 20 19 18 17 17 15 15 15 16 16 17 14 12 8 7 7 7 6 6 6 6 5 4 4 5 4 5 4 4 5 5 6 7 5 5 6 5 5 5 6 6 4 3 2 2 1 2 2 4 3 3 4 2 3
8 7 8 10 10 6 3 4 5 10 16 17 17 19 20 19 20 15 13 19 18 13 12 14 15 15 17 19 22 18 15 16 20 19 19 17 17 15 15 15 16 14 11 7 7 7 6 6 7 6 6 6 5 5 5 5 5 5 5 5 5 5 6 5 3 5 5 6 5 6 4 3 3 2 1 0 0 2 2 2 2 1 1 3 4
4 3 6 5 1 9 7 2 3 6 10 14 18 18 16 16 15 18 20 16 14 13 14 12 10 15 17 20 20 20 19 19 18 18 17 16 16 15 14 8 9 10 9 8 6 7 6 6 5 6 6 5 5 5 5 5 5 5 5 5 6 4 4 3 5 6 5 5 6 4 3 3 2 2 1 1 1 1 2 2 1 2 4 3 4
2 3 3 3 4 3 8 8 5 6 9 8 13 14 15 17 17 15 13 14 14 12 8 6 9 11 12 12 15 19 19 17 16 16 15 15 16 16 15 10 6 3 3 3 6 7 7 7 7 6 6 5 5 6 6 5 6 5 6 4 3 2 3 4 5 4 5 5 4 4 3 3 2 2 1 2 2 1 1 2 3 2 3 4 3
4 4 4 4 5 5 5 7 7 7 9 4 9 15 11 12 16 15 16 13 11 9 8 7 6 9 17 16 14 14 16 17 16 17 17 17 18 19 11 9 8 8 7 5 6 6 6 6 6 6 6 6 5 6 6 6 6 5 5 5 5 5 5 5 4 5 4 4 4 2 2 2 2 3 2 2 3 2 2 2 3 3 3 3 3
6 6 5 3 3 5 4 6 6 4 5 6 10 11 12 11 11 12 15 14 11 8 9 8 9 10 11 9 13 15 15 15 16 17 18 19 20 13 9 10 9 8 8 7 6 6 7 6 6 6 6 6 6 6 6 6 5 4 5 4 5 6 6 6 6 4 4 3 3 2 3 4 4 4 5 4 2 1 1 2 2 2 2 3 3
8 7 5 4 4 5 4 5 6 7 8 9 9 10 10 9 10 11 12 12 11 12 10 7 7 9 10 6 8 8 12 14 17 12 9 9 10 7 7 8 8 9 9 7 7 7 7 6 6 6 6 6 7 6 6 6 6 6 6 5 5 6 6 5 4 4 4 4 4 4 4 4 4 5 3 3 2 1 1 1 1 2 3 3 2
7 11 13 12 5 2 5 5 5 7 8 8 7 8 9 9 9 10 10 10 10 9 8 8 9 8 9 8 9 11 14 10 9 7 7 8 9 7 6 7 7 7 7 7 7 6 6 7 6 6 6 7 7 6 7 6 6 6 6 6 6 4 6 5 5 5 5 6 5 5 6 5 5 5 4 3 2 2 3 1 1 1 2 3 5
5 4 6 8 4 3 5 6 5 6 7 8 7 7 7 8 9 9 10 10 9 9 9 9 8 7 9 10 10 9 10 10 9 8 8 8 9 7 7 7 8 8 8 7 7 7 7 6 6 6 7 6 7 7 6 7 7 7 6 6 7 7 7 6 7 6 7 6 6 6 6 6 5 5 3 3 3 3 2 1 1 2 2 3 4
4 4 5 6 5 4 5 6 6 7 7 7 7 7 7 7 8 8 8 9 9 8 8 8 8 7 8 11 15 12 10 10 9 9 10 10 9 8 7 7 7 7 6 7 7 7 7 7 7 6 6 7 6 7 6 6 6 6 7 6 6 7 7 6 6 6 6 6 6 6 6 5 5 6 4 3 3 2 1 1 1 2 2 3 3
6 5 5 4 4 5 5 5 6 7 7 7 7 7 7 8 7 7 8 8 8 8 8 7 7 7 7 12 12 8 7 7 7 8 7 7 7 7 6 6 6 7 7 7 8 8 7 7 7 7 7 6 6 6 6 6 6 6 6 6 7 6 7 7 7 6 6 6 6 5 5 5 5 4 3 4 2 1 0 0 1 1 3 3 3
3 4 5 4 4 4 5 5 5 6 6 6 7 7 7 8 8 8 9 8 8 9 9 8 7 7 7 9 9 7 6 7 6 7 7 7 7 6 6 7 7 7 7 7 7 7 7 7 7 7 7 8 8 8 8 8 7 7 6 7 7 7 8 7 6 6 6 5 5 4 5 5 4 4 4 3 2 1 1 0 1 2 3 4 4
3 5 4 3 3 3 3 4 6 5 5 6 7 7 7 7 7 7 8 8 8 7 8 8 8 8 7 6 5 5 6 6 6 7 7 7 7 7 6 6 6 6 5 6 6 6 6 7 7 6 6 6 6 6 7 7 7 7 7 7 7 7 7 7 7 7 7 7 6 6 5 4 4 5 3 3 3 1 0 0 1 2 3 4 4
2 7 7 7 6 6 5 5 4 2 3 6 6 7 7 6 6 5 6 6 6 6 6 7 7 7 7 7 6 6 6 6 6 6 7 7 7 7 6 6 6 6 5 5 5 6 6 6 6 6 6 5 6 6 6 6 6 7 8 8 8 8 8 7 8 7 7 7 7 6 6 6 5 4 4 3 2 2 0 1 1 3 3 3 3
3 7 7 7 7 6 6 5 4 4 3 2 3 4 4 4 5 5 5 6 6 6 6 6 6 7 7 7 7 6 6 6 6 6 6 6 5 5 5 6 5 5 5 5 5 5 6 6 7 7 8 7 6 6 6 6 6 6 6 6 7 8 8 7 6 6 6 6 7 6 4 4 4 3 4 3 2 2 2 1 2 3 3 3 4
6 7 7 5 5 4 4 4 4 4 4 5 5 3 2 2 3 4 5 6 6 6 7 7 7 7 7 8 8 7 6 6 6 6 6 6 5 5 6 6 5 5 4 4 4 6 6 7 7 8 8 7 7 8 7 6 6 6 5 6 6 4 5 6 6 7 7 6 6 5 5 5 4 3 2 1 2 1 1 1 2 3 3 3 4
6 6 6 4 3 3 3 2 4 5 3 4 5 6 5 5 4 7 6 5 5 5 4 4 6 7 8 7 7 7 6 6 5 6 6 6 6 6 6 6 6 5 5 5 5 5 6 7 7 7 7 7 7 6 6 5 5 6 5 5 6 6 7 7 5 5 5 6 5 5 5 5 3 3 2 3 3 2 1 1 1 1 2 3 3
6 5 5 5 4 4 3 2 2 3 3 3 5 6 7 7 5 3 2 4 8 9 7 2 3 6 8 8 8 6 6 6 6 6 6 6 6 6 6 6 5 6 6 6 6 5 5 5 6 6 6 7 7 8 7 7 6 6 6 6 7 11 12 11 7 7 7 6 5 4 3 3 3 3 3 3 3 2 2 1 1 2 3 3 3
3 4 5 7 7 6 5 4 4 4 3 3 4 5 6 6 6 7 5 2 4 5 6 6 5 2 5 7 7 7 7 7 7 6 6 6 6 6 6 6 6 6 6 7 6 6 5 5 6 6 7 7 8 8 8 7 7 8 7 8 11 13 12 12 10 9 8 5 6 5 5 4 3 3 3 4 3 2 1 1 2 2 2 3 3
5 6 6 6 7 6 5 6 5 4 4 4 5 3 4 4 4 3 4 5 5 5 5 5 7 6 5 6 7 7 7 7 6 6 6 6 6 6 6 6 6 6 5 6 6 6 6 6 6 7 7 8 8 8 8 8 8 8 10 13 14 14 13 11 8 8 9 6 5 5 4 4 4 3 3 3 3 3 2 2 2 2 2 2 2
Wind_Direction
195 198 196 201 200 200 200 199 200 198 197 196 198 203 203 204 205 206 197 202 192 192 194 195 194 195 193 195 195 192 194 197 195 195 197 204 205 201 194 193 203 212 209 214 211 195 199 207 209 199 181 186 193 187 185 190 163 172 148 139 149 153 148 163 190 247 300 244 244 249 295 143 309 215 244 273 292 292 267 246 251 245 248 252 262
196 196 197 200 202 202 201 199 197 196 198 198 202 205 204 204 202 197 203 204 195 196 196 195 195 194 195 198 198 197 197 198 193 192 197 200 204 201 198 196 205 212 207 216 208 200 190 205 213 194 178 184 186 187 190 175 177 175 179 176 187 189 187 155 197 190 242 315 294 302 279 195 241 213 200 259 271 284 295 288 247 213 230 240 257
194 194 197 199 202 201 199 200 197 198 199 200 204 205 205 202 195 199 204 202 199 198 196 195 195 194 197 198 198 201 200 198 194 192 199 200 201 204 202 198 203 207 209 215 206 191 194 202 208 188 167 174 183 193 185 188 181 185 197 191 203 208 190 188 157 203 221 255 250 283 278 270 201 263 265 225 253 266 278 278 274 287 261 248 259
193 196 199 201 200 199 200 200 198 200 202 203 205 207 205 201 196 200 202 198 199 200 197 197 192 195 200 200 201 202 200 198 196 197 200 201 205 206 204 203 205 208 210 210 199 193 202 196 207 184 170 177 181 181 182 177 180 190 199 204 206 210 201 191 205 193 198 229 280 206 253 232 277 257 260 271 261 265 237 272 290 276 279 282 277
192 197 198 199 199 201 202 200 201 201 204 204 206 206 205 201 198 200 197 200 200 195 200 196 196 197 201 202 202 202 201 197 199 202 204 205 208 208 207 206 206 210 211 207 198 198 199 207 200 178 176 185 191 187 174 177 188 189 201 204 203 214 205 200 209 197 189 219 256 259 246 265 250 274 265 279 293 287 274 263 267 267 273 258 251
194 196 197 199 201 201 202 202 203 203 204 205 206 206 204 202 200 198 196 200 197 197 198 198 199 202 204 204 202 202 198 198 203 204 206 207 209 211 210 207 208 210 210 200 199 198 202 206 189 182 184 193 198 188 183 191 187 194 202 200 201 196 209 217 205 202 210 231 229 280 264 240 285 263 249 222 254 281 297 296 299 281 271 297 281
193 195 197 200 200 202 203 205 203 204 203 205 205 205 205 204 199 199 195 198 196 199 201 202 204 203 204 201 203 200 198 200 205 207 208 208 208 209 209 208 210 213 212 205 203 201 204 195 186 188 194 200 192 190 188 193 192 198 196 195 192 190 199 208 196 199 205 228 244 232 258 261 218 264 253 213 241 243 271 303 299 291 283 261 287
194 196 196 199 201 204 205 204 203 204 204 203 203 206 206 205 203 199 190 196 200 201 201 203 203 202 202 203 203 195 198 205 207 208 208 208 208 210 206 205 211 214 214 211 206 208 201 191 191 191 198 199 194 190 183 192 193 199 198 186 184 184 194 191 188 200 212 225 238 248 230 250 270 246 262 107 298 294 230 240 271 287 289 285 250
194 196 197 200 203 203 202 203 204 203 202 200 202 205 205 206 203 197 196 199 199 202 201 198 198 202 201 200 198 197 203 208 207 204 205 207 208 208 205 208 211 214 216 215 211 205 196 197 192 191 204 202 193 187 190 188 184 196 198 185 180 179 182 179 194 199 223 229 252 252 261 266 259 261 270 234 254 256 243 178 253 264 276 301 299
193 194 199 203 203 199 199 200 200 200 200 201 203 203 203 203 202 201 201 199 196 196 195 195 198 201 201 199 198 201 209 211 209 202 200 201 201 204 204 211 214 215 216 217 212 203 198 189 191 192 195 199 200 196 197 199 194 191 187 183 176 172 180 183 190 205 208 214 230 233 247 256 261 245 251 222 216 248 275 242 251 265 292 268 290
194 197 202 202 198 194 196 199 196 198 200 201 201 200 201 200 201 204 204 197 196 192 192 196 199 199 201 201 201 207 212 213 205 196 199 197 193 198 202 211 214 218 218 215 209 198 199 192 188 199 198 206 202 201 203 201 200 197 184 180 175 171 172 181 202 198 196 213 222 222 237 261 265 261 224 251 237 231 243 242 252 273 266 269 275
196 201 204 198 194 194 197 195 195 200 197 199 198 198 197 197 201 203 201 198 196 190 195 198 197 198 201 202 206 210 214 211 195 194 194 195 194 196 204 210 213 217 217 212 201 187 194 191 193 200 202 203 201 206 204 200 194 190 184 184 182 182 177 178 188 189 195 212 230 237 230 247 272 268 249 237 260 264 252 251 252 250 259 249 239
199 203 201 195 196 196 194 194 198 198 198 198 194 191 193 197 201 200 202 200 191 195 199 194 198 197 198 202 209 212 217 201 190 191 194 194 197 198 205 211 212 215 208 197 171 199 200 192 191 200 203 199 200 191 182 187 189 187 184 183 188 194 199 203 200 139 149 177 225 257 224 221 246 256 207 222 203 256 269 257 248 242 236 242 242
198 201 197 196 197 194 193 196 198 199 196 192 188 189 192 199 201 201 198 192 198 201 197 198 197 197 199 203 209 212 214 194 189 191 193 194 199 201 211 211 214 208 200 199 195 197 194 195 193 196 185 193 192 178 171 175 175 170 173 178 196 214 208 223 245 148 155 177 192 236 242 174 233 252 252 202 246 261 254 259 248 241 230 232 241
199 200 197 198 194 192 194 197 199 197 191 188 187 192 194 199 198 197 195 197 200 200 197 197 199 200 202 204 208 210 213 190 188 191 192 195 200 201 213 213 210 206 201 199 197 203 200 195 186 178 177 200 187 173 169 172 169 170 168 179 170 142 158 171 159 160 177 194 208 228 250 233 243 258 270 241 237 245 237 245 247 235 236 328 331
200 197 200 199 197 195 193 196 197 192 188 188 190 195 196 196 198 195 197 201 202 199 200 200 201 201 201 203 207 212 209 189 190 189 191 196 198 201 210 210 202 191 194 196 199 198 188 181 182 175 178 197 190 178 175 167 164 164 167 156 138 144 175 196 165 169 184 194 201 215 230 245 252 250 251 241 239 247 256 262 62 93 354 316 274
198 195 198 196 198 198 197 196 193 188 187 189 195 197 197 197 198 193 198 200 199 199 200 199 198 198 201 203 204 210 210 191 187 187 191 196 191 201 202 204 201 198 202 192 185 181 186 188 177 160 193 201 189 181 177 156 156 159 161 157 140 143 168 95 197 206 221 236 257 258 260 265 264 259 254 248 232 190 124 11 282 204 262 285 291
200 197 198 195 194 193 195 195 192 188 187 195 198 199 199 198 198 193 199 198 200 201 197 197 199 202 199 200 201 202 208 188 184 187 192 191 185 191 194 196 204 199 195 181 178 186 191 183 160 169 204 201 182 180 169 153 152 153 157 151 138 287 290 136 116 87 92 109 89 42 43 312 293 296 283 282 231 193 173 230 228 140 237 224 244
200 200 202 197 195 192 190 190 191 190 193 199 197 197 198 198 197 193 199 199 201 197 196 201 203 200 200 199 195 196 204 187 188 188 189 184 183 189 185 189 189 191 180 177 167 171 179 181 175 185 188 176 171 173 166 158 152 158 156 146 166 214 195 147 139 127 86 65 2 20 351 346 337 317 295 295 274 212 191 208 162 159 209 222 233
200 203 202 197 194 190 189 189 191 193 199 198 196 199 195 195 194 194 198 196 196 196 199 201 198 199 195 195 192 198 190 176 186 187 182 179 184 180 177 173 186 182 171 165 168 174 180 185 180 170 166 163 169 166 173 163 151 151 147 160 172 213 189 151 156 139 139 128 242 233 274 286 293 306 308 309 297 244 183 191 175 172 184 217 226
199 202 197 192 192 193 193 193 194 198 197 194 193 193 192 195 192 194 193 193 195 197 196 196 197 194 187 187 184 186 182 171 175 180 181 181 182 174 174 182 176 166 170 173 177 176 180 179 153 173 168 161 167 168 166 162 158 160 168 179 188 167 146 130 159 127 130 132 65 343 305 315 323 318 305 308 301 352 148 196 184 184 190 216 239
197 196 192 191 192 192 195 200 199 198 196 190 190 195 195 191 191 191 190 189 191 191 185 186 181 166 155 158 166 162 156 161 158 179 178 175 177 178 168 177 167 160 162 170 168 180 180 163 160 182 166 159 159 158 164 169 166 156 170 144 137 141 142 145 133 114 109 90 107 344 321 322 327 336 328 315 265 231 221 232 231 225 224 211 206
207 201 189 187 191 194 197 197 197 198 196 194 193 194 187 187 190 186 184 181 180 175 172 157 144 131 112 90 88 102 113 125 156 159 171 171 177 180 167 157 155 158 164 171 180 172 154 157 174 162 162 153 152 155 163 166 162 160 147 153 147 144 134 130 133 110 100 112 49 312 308 306 307 293 296 284 274 254 241 235 235 231 238 236 222
184 181 185 193 195 196 194 195 197 198 195 190 192 188 185 188 181 175 167 162 153 139 123 123 116 117 114 102 82 75 80 102 142 159 161 169 175 171 157 153 156 165 167 173 161 154 158 162 152 155 155 152 153 159 162 161 166 163 159 150 144 153 136 132 104 117 117 120 244 263 266 238 225 262 259 253 251 255 255 261 277 267 259 274 273
171 185 196 198 195 193 191 193 194 192 186 182 184 186 183 171 158 149 146 144 142 134 133 123 117 109 92 62 21 88 92 106 114 141 155 163 165 165 157 155 160 149 149 132 145 153 145 136 141 148 149 145 145 144 146 160 149 150 149 156 160 130 134 132 138 118 154 220 232 241 249 238 224 239 257 264 275 282 294 306 297 277 262 239 257
182 192 194 190 194 190 191 194 189 184 180 182 184 181 174 166 159 158 150 149 147 144 140 137 144 155 166 167 173 152 126 116 113 126 145 157 163 164 155 154 152 141 123 130 134 127 138 137 129 120 118 124 123 144 165 158 132 134 150 164 147 144 138 139 145 165 209 222 222 229 236 233 246 252 267 269 268 266 277 287 320 315 334 357 352
183 185 189 195 192 185 183 182 184 185 183 182 181 173 164 164 162 159 159 155 156 156 156 161 166 168 164 159 152 141 137 134 137 145 152 155 155 149 139 132 116 105 104 104 104 107 109 113 114 117 113 127 127 130 123 131 136 149 161 157 138 146 157 168 175 189 208 215 231 245 252 250 268 291 276 266 265 277 218 248 271 271 308 346 339
181 187 184 181 177 176 177 178 172 171 175 171 166 161 163 165 164 164 167 167 163 164 166 169 168 168 164 155 148 144 140 149 159 159 162 154 147 143 139 137 137 133 112 107 105 119 115 108 104 104 117 110 108 115 117 128 147 160 160 146 146 159 179 192 196 193 214 205 232 247 269 261 271 262 271 259 255 271 255 254 230 293 315 1 5
167 156 158 156 164 166 164 166 168 165 156 148 139 153 167 173 173 175 179 173 168 167 171 168 171 170 159 157 155 149 142 166 186 168 156 152 149 149 151 150 142 133 132 128 119 110 112 114 117 126 141 147 150 147 153 155 154 153 151 143 144 157 180 176 195 212 206 195 227 232 249 260 267 271 259 277 272 275 298 318 283 227 313 103 247
148 176 176 171 171 171 170 172 170 164 158 152 143 113 50 60 71 168 170 131 161 161 156 161 167 157 153 161 160 160 178 175 134 139 140 137 135 130 128 134 133 127 136 136 129 123 125 132 147 134 142 159 170 177 179 171 168 180 192 167 166 176 196 206 216 212 194 207 218 220 241 239 253 241 224 248 294 296 325 288 292 303 301 324 309
157 210 225 209 190 178 178 176 176 166 165 161 155 143 116 64 55 51 89 136 135 123 120 127 152 167 153 142 93 89 97 117 141 143 138 139 140 134 133 129 126 134 137 122 116 133 146 157 158 161 166 173 181 184 176 170 187 195 206 193 200 199 202 209 220 203 203 213 214 218 223 207 223 224 240 255 261 287 318 306 259 238 236 272 299
8 351 341 328 305 267 215 185 175 173 173 168 158 149 137 129 83 57 58 78 97 124 142 143 145 139 135 126 114 96 117 133 141 145 145 143 141 137 134 131 138 143 158 135 128 151 164 160 164 175 167 175 188 172 165 181 191 199 192 196 219 213 204 223 209 192 207 204 207 208 202 204 215 221 222 226 233 289 303 316 337 347 328 325 283
58 50 30 0 335 322 351 315 241 195 178 171 167 159 152 141 130 120 78 79 73 73 106 124 126 129 125 118 117 126 136 146 145 146 154 153 146 144 140 139 148 156 140 136 149 158 170 169 171 170 174 183 174 171 185 189 198 201 199 209 222 216 215 222 173 195 204 202 195 200 196 200 197 200 180 148 56 296 305 296 302 315 296 312 305
70 99 132 124 58 323 314 66 25 297 254 198 166 157 143 135 132 129 131 120 90 65 50 52 105 125 118 116 117 123 133 144 147 146 150 152 144 136 129 129 141 167 167 167 159 172 170 176 172 174 183 180 168 171 188 202 206 210 210 218 229 224 210 171 168 196 190 188 189 194 186 186 174 151 265 310 266 241 255 264 302 323 315 291 292
92 56 58 57 65 20 323 327 16 18 328 258 154 127 126 127 122 118 109 107 115 124 134 75 40 69 95 97 110 121 131 137 142 143 140 137 131 127 114 109 129 218 261 210 175 169 175 178 179 181 175 176 184 181 198 205 209 207 207 203 190 165 152 170 186 179 180 174 179 189 187 173 158 160 192 223 223 213 259 299 300 270 268 297 304
131 99 64 74 75 59 8 2 359 19 303 322 50 86 89 103 113 123 113 105 107 117 110 67 81 56 70 71 91 113 123 129 133 137 140 139 137 135 138 152 163 188 192 191 182 178 176 180 177 177 172 184 181 192 197 193 189 175 162 151 157 164 164 171 176 176 178 169 183 174 153 176 173 187 179 205 213 216 229 250 271 278 270 275 285
105 93 84 69 89 104 95 87 56 9 325 34 60 70 82 83 93 99 99 110 115 110 105 123 102 76 65 67 84 93 107 124 135 139 145 150 153 153 164 170 181 174 187 187 179 172 178 187 178 169 175 181 187 186 175 167 153 147 150 152 153 157 182 179 177 168 162 179 193 177 188 204 190 184 179 191 200 208 229 245 250 276 289 299 311
92 89 85 69 79 84 84 86 90 72 47 44 45 66 78 82 88 96 107 118 121 126 125 115 110 117 122 115 121 118 106 100 94 85 98 129 151 166 160 175 175 180 182 186 183 179 181 175 170 173 184 176 172 168 157 155 155 151 155 161 172 181 174 173 171 169 180 191 191 201 203 205 197 197 183 170 191 217 251 248 259 308 316 315 323
73 93 95 84 15 65 106 94 80 77 79 74 72 82 90 95 97 98 104 113 116 118 124 126 128 134 128 123 113 125 114 116 137 148 155 169 173 172 160 171 173 177 177 177 180 177 176 173 179 175 170 171 167 161 159 159 156 159 162 163 174 171 172 178 181 192 193 203 212 208 206 206 200 182 174 161 183 203 220 241 252 249 282 299 298
84 93 92 90 83 78 92 87 82 85 90 98 96 95 97 101 107 112 117 118 122 131 133 133 134 131 136 138 137 147 138 141 149 153 156 155 181 182 172 170 172 173 171 173 181 180 177 177 167 169 171 170 164 163 162 157 163 164 163 168 170 183 193 187 192 190 203 212 213 210 200 203 196 163 145 169 198 202 193 235 262 266 263 264 280
105 102 93 94 105 88 84 89 97 101 104 104 107 107 108 110 114 121 123 124 130 130 128 129 130 136 153 156 158 154 146 153 152 159 169 174 177 178 177 174 165 170 170 175 179 180 180 171 168 170 168 168 165 161 160 156 154 155 169 177 181 187 190 198 197 201 206 208 205 199 202 187 166 145 173 217 202 182 187 209 251 271 275 274 274
103 94 96 111 128 118 114 114 116 119 117 116 112 113 115 118 119 121 120 125 124 122 119 113 119 129 139 146 146 120 112 133 149 152 157 167 171 176 170 166 168 171 175 179 178 176 173 169 168 167 169 167 161 158 150 155 162 168 171 176 184 190 193 204 204 202 196 204 207 201 185 176 159 158 178 161 154 163 197 249 269 281 286 288 298
8 87 123 139 135 135 123 111 103 102 116 119 127 126 125 127 135 136 136 138 136 139 137 134 134 132 136 144 142 115 121 143 151 154 159 166 172 167 168 170 173 178 183 181 178 172 167 166 166 173 173 173 169 164 168 173 171 171 175 181 186 191 201 206 202 201 194 193 194 186 173 160 152 164 169 157 158 171 188 249 293 291 292 297 296
358 38 27 40 39 39 65 109 124 133 129 132 130 128 137 139 139 140 139 138 145 147 141 140 138 137 129 126 121 114 137 148 155 162 166 165 170 173 172 171 166 166 169 171 172 164 159 160 164 171 170 168 167 167 170 168 167 170 177 180 189 197 201 200 195 189 180 181 177 168 165 161 160 157 155 153 151 146 199 303 290 300 302 300 298
54 72 67 51 47 46 37 26 32 64 122 132 136 147 153 148 146 146 135 135 143 138 131 138 136 132 131 146 154 152 157 162 162 165 170 170 169 175 171 170 172 173 167 157 155 156 159 159 156 154 160 162 164 166 167 168 176 178 176 176 182 193 197 200 200 188 171 165 166 163 164 158 157 160 168 173 167 160 187 218 258 289 301 291 295
53 73 76 81 78 68 55 43 54 60 70 101 107 115 112 129 144 144 140 140 141 135 134 132 129 138 147 152 157 157 158 163 171 173 165 161 159 162 168 170 169 170 170 156 151 159 161 156 155 156 157 158 161 166 171 177 177 177 173 173 177 191 200 195 169 156 167 161 157 157 157 155 171 179 192 174 167 152 192 238 248 251 248 268 281
58 63 65 60 72 79 96 116 98 82 77 71 48 45 73 107 102 102 135 148 140 141 140 143 142 151 155 159 164 169 168 171 168 164 163 161 158 156 160 165 162 161 161 158 156 157 159 158 156 155 157 162 166 169 170 167 163 164 167 176 184 181 178 168 167 161 159 159 147 140 158 171 189 198 208 127 135 163 182 233 242 272 278 272 278
63 68 75 68 47 48 29 25 76 75 65 84 101 98 85 58 78 120 118 120 113 99 96 131 151 151 155 159 165 164 169 164 155 151 150 157 164 163 158 157 162 161 154 154 161 160 163 164 157 152 153 154 151 149 148 151 151 157 170 183 184 183 176 167 159 159 154 148 153 158 163 178 191 185 180 166 173 171 193 242 263 265 266 281 285
81 83 86 88 91 89 97 79 66 71 87 102 107 103 98 103 85 27 12 108 131 130 121 136 198 171 157 157 155 158 155 152 153 155 159 163 160 162 161 160 156 154 154 157 164 167 168 156 152 149 148 148 149 152 155 159 166 170 180 193 197 184 173 168 162 167 160 152 147 142 139 153 174 188 182 175 182 184 204 232 249 272 283 284 285
99 110 109 102 100 95 86 69 60 58 56 70 100 114 129 139 135 135 131 103 108 116 130 134 136 214 157 149 154 158 158 163 166 166 160 159 155 159 163 162 158 159 161 162 168 168 163 158 157 157 158 160 160 159 161 165 174 182 186 194 193 182 179 176 170 162 156 153 152 160 161 168 176 181 181 181 180 179 197 235 234 246 261 281 285
42 45 56 69 79 88 94 97 99 86 66 51 38 36 78 82 83 110 134 150 186 161 154 155 142 165 182 166 159 159 167 171 170 163 166 168 167 159 156 162 167 170 172 168 165 164 168 167 167 167 167 166 166 168 167 176 184 186 191 191 188 185 181 172 173 173 158 146 146 142 152 162 172 180 194 195 176 172 215 233 252 254 262 254 272